Location: Newark
(40.0251°N, 85.2247°W)
Time: 14:49:50
(UTC+00:00)

Hubble Space Telescope - Pass Details

Date: 20 December 2019
Orbit: 536 x 540 km, 28.5° (Epoch: 20 January)

Event Time Altitude Azimuth Distance (km) Brightness Sun altitude
Exits shadow 12:11:51 - 245° (WSW) 2,560 3.8 -8.8°
Reaches altitude 10° 12:15:12 10° 213° (SSW) 1,784 3.3 -8.2°
Maximum altitude 12:16:33 11° 194° (SSW) 1,696 3.4 -8.0°
Drops below altitude 10° 12:17:54 10° 175° (S) 1,783 3.8 -7.8°
Sets 12:21:38 0° 141° (SE) 2,672 5.6 -7.1°
